Date,TemperatureHighF,TemperatureAvgF,TemperatureLowF,DewpointHighF,DewpointAvgF,DewpointLowF,HumidityHigh,HumidityAvg,HumidityLow,PressureMaxIn,PressureMinIn,WindSpeedMaxMPH,WindSpeedAvgMPH,GustSpeedMaxMPH,PrecipitationSumIn
2013-1-1,43.2,39.6,34.8,42.7,38.5,31.0,98,96,83,30.12,29.92,7,0,10,0.54
2013-1-2,42.2,36.2,34.0,41.7,34.8,31.8,100,95,91,30.15,29.94,7,0,7,0.09
2013-1-3,40.4,35.0,29.5,33.9,30.4,23.8,94,84,64,30.31,30.12,7,0,9,0.00
2013-1-4,36.4,30.7,24.7,26.9,23.7,20.7,88,75,65,30.40,30.31,16,1,16,0.00
2013-1-5,44.8,33.0,23.0,32.9,25.5,19.9,92,75,49,30.42,30.24,5,0,6,0.02
2013-1-6,41.0,37.5,33.9,36.8,34.6,29.8,97,89,78,30.26,30.09,12,2,13,0.04
2013-1-7,47.4,36.8,28.5,33.7,29.1,24.7,87,74,55,30.42,30.25,6,0,6,0.00
2013-1-8,53.9,39.6,27.9,34.3,28.9,24.3,89,67,38,30.41,30.28,4,0,4,0.00
2013-1-9,48.7,43.4,36.4,47.1,39.3,29.7,96,86,69,30.46,30.29,6,0,7,0.03
2013-1-10,60.8,52.4,45.1,52.6,48.3,44.0,97,86,72,30.47,30.17,6,0,7,0.00
2013-1-11,61.1,57.2,53.9,58.9,53.9,46.9,97,89,73,30.18,29.99,10,0,13,0.10
2013-1-12,69.6,61.7,57.0,64.2,59.5,56.1,98,93,79,30.09,29.93,7,0,7,0.02
2013-1-13,70.8,60.8,53.0,60.5,55.5,50.7,96,83,63,30.00,29.88,11,0,14,0.30
2013-1-14,59.1,47.6,38.1,58.0,46.8,37.3,98,97,96,30.23,29.94,7,0,8,1.45
2013-1-15,47.2,41.9,38.3,46.9,41.4,37.6,99,98,97,30.16,29.92,4,0,5,1.52
2013-1-16,50.9,48.1,43.9,50.6,47.7,43.4,99,98,97,30.01,29.85,9,0,10,0.91
2013-1-17,43.9,38.0,29.7,43.4,37.0,28.5,100,96,89,30.30,29.91,10,1,10,0.24
2013-1-18,37.4,31.0,24.3,33.9,28.9,23.1,98,92,81,30.54,30.29,2,0,3,0.48
2013-1-19,44.2,32.6,22.2,35.6,28.5,21.0,98,86,58,30.44,30.16,6,0,7,0.23
2013-1-20,48.6,40.8,31.9,36.5,31.7,24.2,90,70,54,30.17,30.08,16,2,16,0.03
2013-1-21,41.6,35.1,26.4,28.9,22.7,12.2,92,62,42,30.13,30.01,24,4,27,0.00
2013-1-22,28.2,22.5,18.3,12.5,5.2,0.7,57,47,34,30.30,30.11,19,4,23,0.00
2013-1-23,38.7,29.9,23.1,27.5,14.3,2.4,67,52,39,30.37,30.06,16,2,20,0.00
2013-1-24,40.2,29.6,20.0,31.6,15.8,5.4,73,57,37,30.43,30.05,27,3,27,0.00
2013-1-25,33.3,27.7,20.4,32.5,23.2,8.2,97,84,58,30.37,30.09,10,1,10,0.15
2013-1-26,35.9,31.9,27.6,33.1,29.7,25.9,97,92,85,30.38,30.16,9,1,9,0.08
2013-1-27,45.4,34.7,24.5,37.7,30.7,22.8,100,86,67,30.45,30.30,6,0,9,0.06
2013-1-28,59.5,45.9,35.9,48.6,41.2,33.3,96,84,63,30.35,30.18,11,0,12,0.14
2013-1-29,70.4,55.6,43.1,55.4,49.9,42.2,98,83,52,30.20,29.85,6,0,6,0.00
2013-1-30,65.0,56.3,42.2,60.1,52.9,38.3,100,89,75,29.85,29.39,27,2,30,1.99
2013-1-31,42.3,34.0,30.6,38.7,26.4,22.0,92,74,55,29.97,29.49,32,5,32,0.03
2013-2-1,38.1,23.6,15.9,31.3,14.6,7.2,92,68,52,30.39,29.90,29,4,32,0.00
2013-2-2,31.1,24.3,17.3,29.7,20.6,11.6,95,86,63,30.38,30.06,15,1,16,0.00
2013-2-3,35.6,32.2,29.2,32.3,28.8,21.5,95,88,72,30.13,29.94,19,4,23,0.13
2013-2-4,40.0,31.9,22.4,30.0,24.8,18.4,92,76,55,30.13,29.95,7,0,11,0.11
2013-2-5,50.4,41.6,33.5,41.2,35.1,29.4,86,78,66,29.98,29.91,13,1,13,0.01
2013-2-6,55.0,44.5,36.8,37.7,32.5,28.2,82,64,40,30.17,29.97,10,1,11,0.00
2013-2-7,55.1,43.5,35.3,41.9,35.1,28.7,88,73,55,30.16,29.91,7,0,10,0.00
2013-2-8,52.2,42.2,34.8,45.8,36.9,28.3,98,82,50,30.22,29.85,21,2,21,0.05
2013-2-9,50.1,37.3,27.3,29.4,25.1,21.9,85,63,36,30.34,30.20,7,0,7,0.00
2013-2-10,60.0,44.5,34.5,42.1,31.0,24.1,94,63,29,30.26,29.97,11,0,13,0.17
2013-2-11,54.6,49.9,43.6,51.7,45.1,30.9,97,84,57,30.06,29.92,15,2,15,0.06
2013-2-12,51.0,44.2,36.9,38.2,30.1,26.3,84,58,41,30.13,29.84,11,0,11,0.01
2013-2-13,44.7,40.7,36.0,43.3,38.4,32.5,100,91,83,29.92,29.60,17,2,19,0.24
2013-2-14,48.9,38.9,31.6,36.0,31.4,26.5,92,75,56,30.05,29.92,12,1,12,0.00
2013-2-15,53.4,38.8,30.5,40.1,34.0,28.0,95,84,57,30.07,29.93,20,2,22,0.04
2013-2-16,34.4,30.3,24.7,33.0,23.3,12.4,100,76,49,30.03,29.91,16,2,22,0.00
2013-2-17,35.3,27.4,22.3,15.9,12.7,9.1,68,54,40,30.25,30.03,20,4,28,0.00
2013-2-18,57.4,37.9,20.2,36.0,23.3,10.6,81,57,41,30.32,29.98,16,1,16,0.00
2013-2-19,48.3,41.0,33.8,42.3,30.4,16.6,96,69,39,30.08,29.85,28,4,28,0.17
2013-2-20,40.2,32.4,26.6,20.0,16.7,11.5,69,53,33,30.20,30.07,16,2,18,0.00
2013-2-21,50.2,36.5,22.9,38.3,21.6,15.0,94,58,30,30.25,30.04,9,0,10,0.22
2013-2-22,57.3,47.1,39.7,47.4,42.1,38.2,100,84,65,30.13,29.94,7,0,10,0.25
2013-2-23,56.4,47.3,40.8,49.3,44.4,39.5,100,90,73,29.97,29.78,7,0,7,0.09
2013-2-24,53.2,43.3,35.8,44.8,30.8,23.8,95,63,36,30.04,29.82,14,2,15,0.00
2013-2-25,57.3,41.8,31.4,38.1,30.0,23.4,79,64,44,30.05,29.86,10,1,10,0.00
2013-2-26,57.5,46.1,39.7,49.0,40.4,32.0,96,81,66,29.88,29.38,22,2,24,0.27
2013-2-27,45.2,39.5,36.5,37.4,34.4,31.5,90,82,68,29.77,29.59,22,4,22,0.01
2013-2-28,37.4,34.4,32.3,32.8,28.5,26.3,96,79,69,29.94,29.72,20,5,22,0.02
2013-3-1,39.2,34.7,32.1,35.8,31.5,28.9,93,88,79,29.94,29.88,12,2,20,0.01
2013-3-2,36.7,32.2,27.8,34.1,27.8,20.0,96,84,70,30.00,29.86,12,1,12,0.08
2013-3-3,31.3,27.7,23.9,23.8,20.2,17.2,91,74,63,30.08,29.98,18,2,18,0.01
2013-3-4,48.3,35.3,22.8,27.5,21.8,17.9,82,59,39,30.18,30.01,9,1,10,0.00
2013-3-5,48.5,40.2,32.7,48.0,35.9,24.2,100,86,55,30.02,29.57,30,2,30,1.29
2013-3-6,32.8,30.1,27.5,30.0,26.5,23.0,94,86,77,30.22,29.72,29,5,29,0.05
2013-3-7,35.2,31.8,29.5,29.8,27.5,25.9,89,84,76,30.34,30.20,5,0,7,0.05
2013-3-8,48.8,36.6,27.1,33.4,27.8,23.2,92,72,49,30.40,30.29,9,0,10,0.00
2013-3-9,66.4,46.5,29.0,39.8,30.7,25.1,92,59,27,30.33,30.13,7,0,9,0.00
2013-3-10,71.0,56.6,45.5,42.5,35.8,30.7,62,47,30,30.16,29.96,10,0,10,0.00
2013-3-11,60.2,54.4,49.7,51.3,46.4,35.6,97,76,50,29.98,29.70,18,1,18,0.52
2013-3-12,51.1,42.8,37.2,50.2,37.7,32.1,100,83,61,30.02,29.73,17,2,18,0.13
2013-3-13,39.8,35.9,30.0,32.7,25.8,17.0,90,67,48,30.26,30.00,23,4,27,0.01
2013-3-14,43.7,34.1,24.6,25.7,20.3,16.5,75,57,43,30.35,30.20,13,2,15,0.00
2013-3-15,60.7,45.9,30.7,44.3,32.7,21.3,82,61,46,30.22,29.86,15,2,16,0.00
2013-3-16,70.8,63.2,53.0,52.0,48.6,43.6,76,59,49,29.87,29.67,22,5,26,0.01
2013-3-17,62.7,55.8,47.4,55.0,50.2,44.6,94,82,67,29.90,29.78,7,0,9,0.01
2013-3-18,61.0,49.5,42.2,51.3,46.2,39.7,100,89,64,29.87,29.72,10,0,10,0.63
2013-3-19,54.0,46.3,38.0,48.8,31.4,13.6,100,60,25,30.06,29.76,27,4,30,0.21
2013-3-20,51.2,40.4,30.5,30.1,19.0,12.2,75,43,28,30.08,29.80,21,3,25,0.00
2013-3-21,36.8,28.5,22.0,17.7,13.4,10.0,66,53,39,30.02,29.85,20,3,20,0.00
2013-3-22,43.8,32.2,19.3,25.2,17.6,12.4,85,56,35,30.09,29.99,10,1,12,0.00
2013-3-23,53.3,43.6,37.7,40.6,32.8,22.0,79,66,51,30.03,29.77,5,0,5,0.00
2013-3-24,54.2,45.6,41.4,49.1,42.6,37.1,97,89,78,29.80,29.32,21,2,23,0.73
2013-3-25,43.2,33.2,30.1,41.0,29.8,27.1,93,87,78,29.93,29.45,29,7,30,0.06
2013-3-26,36.6,32.6,29.8,31.0,28.5,26.7,91,85,74,30.23,29.93,17,4,17,0.03
2013-3-27,41.7,34.4,30.7,30.7,26.3,22.4,95,73,54,30.31,30.21,13,2,14,0.00
2013-3-28,51.3,38.5,27.4,31.7,25.9,22.4,83,62,40,30.33,30.23,16,1,16,0.00
2013-3-29,50.4,40.4,27.6,39.4,31.4,22.6,94,72,40,30.31,30.22,16,2,18,0.00
2013-3-30,59.1,47.3,37.5,45.3,40.5,36.2,96,79,54,30.23,29.96,13,1,14,0.00
2013-3-31,58.4,50.8,46.1,54.0,48.6,41.2,98,92,68,29.97,29.78,14,1,17,0.58
2013-4-1,58.3,50.5,42.9,50.1,43.6,33.9,100,79,49,30.00,29.83,24,3,27,0.01
2013-4-2,52.7,42.8,33.9,34.4,26.0,19.9,78,53,30,30.16,29.99,14,1,15,0.00
2013-4-3,54.9,44.7,32.1,28.8,23.2,17.6,65,43,29,30.27,30.15,8,1,9,0.00
2013-4-4,43.8,39.0,36.6,37.2,30.2,19.1,96,74,40,30.20,29.94,8,1,9,0.92
2013-4-5,58.4,45.6,36.9,45.9,39.8,35.9,97,82,55,30.06,29.93,13,1,13,0.01
2013-4-6,71.0,54.1,37.5,45.9,38.8,34.0,94,60,29,30.16,30.01,9,0,11,0.00
2013-4-7,70.6,59.4,47.3,48.7,42.1,34.9,69,53,41,30.09,29.97,20,2,20,0.00
2013-4-8,76.4,63.3,50.1,55.9,50.0,43.9,85,63,44,30.04,29.92,14,1,16,0.00
2013-4-9,80.6,68.7,51.2,59.6,55.2,47.8,91,64,41,30.11,29.95,14,1,17,0.00
2013-4-10,83.2,71.0,58.0,62.1,58.1,53.3,87,65,45,30.02,29.79,16,1,17,0.00
2013-4-11,81.8,70.0,60.9,61.8,56.8,52.3,95,65,37,29.81,29.56,18,1,20,0.42
2013-4-12,62.4,57.8,49.8,59.7,50.1,38.7,98,77,54,29.86,29.47,15,1,20,0.48
2013-4-13,67.8,56.0,45.1,45.6,40.2,34.6,81,58,35,29.99,29.85,20,2,20,0.00
2013-4-14,74.8,59.9,43.4,51.8,43.8,34.3,92,58,32,30.01,29.87,12,0,12,0.05
2013-4-15,76.6,61.5,52.9,60.8,54.4,51.2,96,79,50,30.05,29.87,11,0,11,0.01
2013-4-16,81.2,67.5,53.5,62.0,56.8,51.1,94,71,47,30.17,30.03,12,1,13,0.00
2013-4-17,68.8,62.1,58.9,62.6,59.4,57.0,98,91,71,30.21,30.00,11,0,11,1.05
2013-4-18,79.3,67.7,55.6,67.3,58.2,54.7,98,75,45,30.00,29.75,13,1,16,0.00
2013-4-19,70.4,58.9,45.1,63.2,52.8,34.9,96,81,66,29.95,29.56,20,2,20,0.32
2013-4-20,58.9,47.0,35.5,38.7,33.1,28.6,82,60,35,30.26,29.95,17,2,18,0.00
2013-4-21,64.9,50.6,38.6,44.1,35.7,28.6,79,58,36,30.37,30.23,9,0,10,0.00
2013-4-22,68.3,54.6,42.1,48.7,40.5,35.7,84,61,33,30.31,30.10,10,0,11,0.00
2013-4-23,73.7,57.3,41.1,51.1,41.0,31.4,77,56,28,30.18,29.97,8,0,9,0.00
2013-4-24,71.3,58.7,46.2,59.8,51.4,43.7,96,78,55,30.12,29.88,22,2,23,0.24
2013-4-25,63.2,50.7,38.8,45.5,39.0,31.8,92,66,38,30.30,30.12,10,1,12,0.00
2013-4-26,68.3,54.3,38.1,44.8,37.4,31.2,90,54,33,30.38,30.24,5,0,7,0.00
2013-4-27,59.2,55.0,51.3,55.0,49.8,40.8,95,83,56,30.30,30.09,5,0,6,0.14
2013-4-28,57.1,53.4,49.4,55.3,51.8,48.0,99,95,88,30.11,29.88,10,0,14,0.82
2013-4-29,70.8,59.7,50.5,60.1,54.6,49.4,98,84,59,29.99,29.89,10,0,10,0.00
2013-4-30,80.2,65.1,51.2,63.2,56.0,49.7,98,75,44,30.04,29.90,6,0,6,0.00
2013-5-1,72.5,63.1,53.5,60.5,54.7,51.8,95,75,54,30.15,30.03,13,1,13,0.00
2013-5-2,76.2,63.2,54.4,61.9,54.7,50.3,92,75,49,30.17,30.07,10,1,10,0.00
2013-5-3,69.1,59.6,51.2,56.4,50.5,44.2,92,73,50,30.12,29.97,10,1,11,0.00
2013-5-4,64.2,56.6,49.0,53.4,46.2,35.8,90,68,59,29.98,29.86,12,2,12,0.03
2013-5-5,59.3,53.2,49.9,53.8,49.6,46.6,95,87,77,29.91,29.73,19,2,19,0.21
2013-5-6,71.8,59.2,51.4,59.5,52.7,46.1,98,81,44,29.77,29.69,11,1,12,0.58
2013-5-7,62.7,57.5,54.3,56.7,54.1,50.8,96,89,70,29.89,29.83,10,0,10,0.23
2013-5-8,66.7,58.2,53.2,59.3,55.6,52.3,98,91,72,29.99,29.85,13,1,14,0.05
2013-5-9,76.6,63.4,51.9,62.8,57.4,51.1,99,83,52,30.06,29.95,10,1,12,0.00
2013-5-10,75.0,62.5,52.6,65.0,57.7,51.4,98,86,62,30.01,29.91,13,1,14,0.00
2013-5-11,70.2,63.3,56.1,63.3,58.6,51.3,97,85,75,29.88,29.75,5,1,15,0.14
2013-5-12,61.3,53.9,44.8,51.4,40.4,34.0,92,62,41,30.05,29.86,15,2,19,0.00
2013-5-13,62.6,51.5,38.7,38.5,34.9,31.8,86,55,34,30.16,30.04,22,2,24,0.00
2013-5-14,74.3,58.5,38.7,56.3,45.4,34.5,89,63,44,30.19,29.96,16,1,16,0.00
2013-5-15,82.5,71.6,61.4,62.2,58.0,54.0,80,63,46,30.05,29.87,18,2,18,0.00
2013-5-16,77.3,68.9,61.0,63.5,58.3,53.5,90,69,55,29.96,29.88,13,1,13,0.03
2013-5-17,83.9,66.0,55.4,68.1,60.3,54.0,97,84,53,30.03,29.92,16,0,16,0.14
2013-5-18,73.2,64.4,59.1,68.1,62.9,58.2,99,95,78,30.01,29.94,11,0,11,0.88
2013-5-19,78.5,68.8,62.6,70.9,65.6,62.0,99,90,70,30.00,29.89,11,0,12,0.03
2013-5-20,81.8,70.4,61.8,70.3,65.4,60.7,98,85,63,30.04,29.91,5,0,7,0.06
2013-5-21,87.0,71.9,61.5,73.5,65.7,60.3,99,83,52,29.97,29.81,17,0,19,0.09
2013-5-22,83.2,67.2,59.7,71.9,63.8,58.8,99,90,61,29.89,29.75,16,0,18,1.28
2013-5-23,77.1,65.9,60.2,66.3,61.6,54.7,99,87,63,29.90,29.78,14,1,16,0.46
2013-5-24,66.5,58.8,49.2,55.4,47.8,38.7,91,69,40,30.20,29.89,13,1,13,0.00
2013-5-25,70.8,57.4,42.7,51.8,44.2,36.6,93,64,35,30.32,30.14,13,0,13,0.00
2013-5-26,73.4,61.6,51.1,56.0,49.7,43.8,91,66,46,30.23,30.11,12,0,12,0.01
2013-5-27,81.2,66.8,51.4,65.7,57.6,49.4,96,74,49,30.17,30.00,12,1,14,0.07
2013-5-28,84.1,71.8,58.9,69.3,62.2,56.6,95,74,50,30.11,29.98,13,1,15,0.01
2013-5-29,87.8,73.8,59.6,69.9,62.6,56.3,94,70,46,30.12,30.00,7,0,10,0.00
2013-5-30,88.3,73.8,60.5,70.5,62.9,57.8,92,71,46,30.15,29.99,5,0,7,0.00
2013-5-31,87.5,74.6,60.5,69.1,62.9,57.2,92,69,44,30.08,29.95,10,0,11,0.00
2013-6-1,87.7,76.7,64.0,69.6,64.6,60.1,92,68,49,29.99,29.83,9,1,11,0.00
2013-6-2,72.9,67.7,65.4,68.3,65.8,63.6,97,93,75,29.89,29.79,7,0,7,0.52
2013-6-3,79.6,70.3,64.6,67.7,64.3,59.4,98,83,55,29.92,29.80,12,1,14,0.03
2013-6-4,83.2,70.7,58.7,67.5,62.0,57.0,96,76,52,29.97,29.90,6,0,6,0.00
2013-6-5,87.3,70.5,60.1,70.7,64.6,58.1,97,83,51,29.98,29.82,6,0,9,0.58
2013-6-6,80.3,70.5,62.7,71.3,66.5,61.8,99,88,69,29.89,29.67,10,0,11,0.01
2013-6-7,80.3,70.8,64.4,70.8,66.6,62.4,96,87,63,29.76,29.61,5,0,6,0.09
2013-6-8,81.0,69.1,61.4,68.3,64.0,60.5,99,85,59,30.00,29.76,9,0,9,0.33
2013-6-9,83.8,70.6,60.6,73.3,66.1,58.9,97,87,61,30.06,29.90,5,0,7,0.36
2013-6-10,77.8,70.3,65.9,69.7,66.2,62.2,98,87,67,29.92,29.78,15,1,18,0.22
2013-6-11,80.5,70.8,62.9,68.9,64.9,62.0,98,83,59,29.95,29.84,13,1,13,0.16
2013-6-12,89.2,77.3,66.5,78.5,70.7,63.7,96,81,64,29.95,29.80,12,1,13,0.00
2013-6-13,81.2,73.3,65.1,74.1,69.2,60.4,95,87,77,29.81,29.62,19,1,19,0.42
2013-6-14,80.0,67.9,57.5,65.2,59.6,55.9,96,77,49,29.99,29.78,11,0,11,0.00
2013-6-15,82.4,68.2,55.3,66.7,60.1,53.5,97,77,50,30.08,29.96,9,0,11,0.00
2013-6-16,83.4,72.5,63.5,70.6,65.5,61.1,95,80,61,30.04,29.91,11,1,11,0.00
2013-6-17,81.4,72.3,65.0,72.6,68.5,63.8,98,89,69,29.97,29.84,11,0,18,0.45
2013-6-18,71.9,68.3,63.6,69.0,66.5,62.0,98,94,80,29.89,29.76,10,0,10,0.91
2013-6-19,83.3,68.0,59.0,70.7,63.7,58.4,99,88,59,30.03,29.87,4,0,5,0.00
2013-6-20,85.3,71.9,61.5,72.2,65.6,60.3,98,82,56,30.11,30.01,5,0,9,0.00
2013-6-21,86.8,73.6,63.0,72.0,66.2,61.5,96,80,52,30.16,30.05,7,0,8,0.26
2013-6-22,87.1,72.9,61.3,69.1,63.8,59.0,99,76,41,30.16,30.01,5,0,5,0.00
2013-6-23,87.9,74.1,62.0,71.8,65.0,59.9,96,75,49,30.13,30.01,6,0,7,0.00
2013-6-24,85.4,74.9,65.2,72.9,68.1,63.1,95,80,63,30.13,29.99,8,0,9,0.00
2013-6-25,81.7,72.7,66.8,74.3,69.1,65.1,97,89,73,30.07,29.92,14,0,17,0.35
2013-6-26,81.6,72.1,66.3,74.6,69.3,65.4,99,91,75,29.95,29.81,10,1,11,0.00
2013-6-27,81.6,71.0,64.0,75.2,68.7,63.0,98,93,79,29.86,29.69,13,1,23,0.83
2013-6-28,81.0,73.0,67.7,74.3,69.8,65.4,98,90,73,29.74,29.55,19,1,21,0.09
2013-6-29,82.8,72.9,66.4,69.5,65.9,61.5,98,80,53,29.62,29.55,12,1,13,0.00
2013-6-30,86.8,72.5,61.2,70.6,64.5,59.2,97,78,48,29.72,29.60,8,0,10,0.15
2013-7-1,85.8,71.8,65.3,74.3,67.3,64.3,99,87,60,29.83,29.69,11,0,11,0.07
2013-7-2,86.0,71.7,64.3,73.4,67.4,63.5,99,87,57,30.00,29.82,15,0,16,0.05
2013-7-3,73.7,67.8,63.0,72.5,66.5,62.4,98,96,90,30.13,29.98,5,0,6,0.96
2013-7-4,81.8,69.4,62.8,76.9,67.8,62.2,99,95,77,30.15,30.04,4,0,6,0.33
2013-7-5,84.0,73.3,65.7,74.0,68.9,65.1,99,87,64,30.11,30.04,6,0,7,0.06
2013-7-6,87.8,74.4,66.6,76.7,69.4,65.7,99,86,61,30.09,29.96,6,0,11,0.13
2013-7-7,72.9,69.3,66.7,71.8,68.0,65.4,99,96,91,30.09,29.99,9,0,11,0.12
2013-7-8,86.3,72.9,64.3,74.0,68.0,63.6,99,86,52,30.14,30.03,8,0,10,0.00
2013-7-9,88.0,75.6,64.5,75.2,69.2,63.5,98,82,59,30.09,29.97,7,0,7,0.00
2013-7-10,84.5,75.1,69.4,77.0,71.2,67.3,97,88,72,30.00,29.84,6,0,9,0.16
2013-7-11,83.2,73.4,67.9,74.4,69.9,66.2,98,90,68,29.89,29.79,6,0,9,0.00
2013-7-12,83.6,72.8,64.2,71.7,66.6,62.5,99,83,55,29.91,29.82,6,0,7,0.01
2013-7-13,86.0,72.5,62.1,72.3,66.2,61.0,98,82,58,30.02,29.90,9,0,9,0.00
2013-7-14,87.0,75.2,67.9,75.3,69.8,65.6,98,84,61,30.17,30.00,10,0,11,0.06
2013-7-15,90.5,77.0,65.8,76.1,69.5,64.4,97,79,53,30.23,30.14,5,0,7,0.00
2013-7-16,92.6,78.5,65.4,76.5,69.7,63.9,97,76,49,30.26,30.15,4,0,4,0.00
2013-7-17,91.3,75.4,67.2,79.2,70.9,65.8,98,87,61,30.21,30.06,22,0,22,1.16
2013-7-18,92.0,74.3,67.0,79.9,70.6,66.4,99,89,56,30.15,29.98,9,0,9,0.00
2013-7-19,87.8,76.0,66.3,77.4,71.5,65.7,99,87,65,30.04,29.88,9,0,11,0.01
2013-7-20,86.3,74.0,67.4,77.6,70.6,66.2,98,90,68,29.95,29.83,10,0,12,0.07
2013-7-21,81.2,72.0,67.7,75.3,69.8,66.4,98,93,78,29.93,29.84,10,0,10,0.12
2013-7-22,82.4,73.4,66.1,74.1,69.9,65.5,99,89,72,29.91,29.73,11,1,13,0.10
2013-7-23,82.7,73.6,68.2,73.5,69.9,66.2,97,89,68,29.82,29.71,10,1,12,0.00
2013-7-24,82.7,74.6,68.1,73.6,70.0,65.0,99,86,66,29.81,29.71,9,0,11,0.00
2013-7-25,85.2,72.2,63.3,70.6,64.4,58.9,97,78,52,29.98,29.79,5,0,6,0.00
2013-7-26,86.3,71.6,58.5,72.7,64.5,57.2,98,80,54,30.00,29.90,9,0,10,0.08
2013-7-27,81.8,71.7,66.7,72.5,68.1,65.6,99,89,62,29.93,29.80,7,0,8,0.00
2013-7-28,80.7,71.3,63.5,69.2,65.1,59.0,98,82,58,29.98,29.81,12,1,16,0.00
2013-7-29,81.5,68.0,56.7,65.8,58.8,55.2,96,74,46,30.14,29.97,10,0,11,0.00
2013-7-30,80.0,67.5,56.7,68.4,61.5,55.6,98,82,54,30.16,30.07,6,0,9,0.00
2013-7-31,70.5,66.7,62.7,69.7,65.6,60.6,98,96,89,30.11,29.91,2,0,3,0.35
2013-8-1,83.2,72.0,66.5,73.2,68.5,64.2,99,89,63,29.92,29.84,5,0,9,0.05
2013-8-2,83.8,71.8,63.2,69.8,64.8,61.1,99,81,54,29.98,29.88,5,0,5,0.00
2013-8-3,81.9,72.5,63.4,71.8,66.9,61.2,97,84,67,29.96,29.89,11,1,11,0.00
2013-8-4,83.5,73.7,66.1,70.0,66.4,61.5,97,80,50,29.98,29.89,10,0,13,0.03
2013-8-5,84.3,71.8,60.5,68.9,63.4,59.2,97,77,52,29.99,29.88,11,0,13,0.00
2013-8-6,84.8,73.6,64.7,73.3,66.5,61.3,94,79,57,29.94,29.85,7,0,9,0.00
2013-8-7,80.3,73.6,68.7,74.5,70.3,66.9,96,90,75,29.94,29.88,9,0,9,0.30
2013-8-8,80.7,74.0,68.1,75.0,71.0,66.8,98,91,79,29.95,29.89,9,0,9,0.00
2013-8-9,87.5,76.5,68.4,76.9,71.7,67.1,98,86,67,29.99,29.88,10,0,13,0.00
2013-8-10,85.2,73.4,68.7,76.8,71.4,67.8,99,94,70,30.03,29.96,16,0,16,1.31
2013-8-11,85.2,73.4,68.3,75.3,70.7,67.5,99,92,71,30.08,29.97,8,0,13,0.00
2013-8-12,82.8,73.3,67.9,75.4,70.6,66.9,99,92,76,30.03,29.89,9,0,9,0.11
2013-8-13,76.9,71.6,66.2,73.3,69.8,64.1,99,94,83,29.90,29.77,13,1,13,0.84
2013-8-14,76.4,67.2,57.7,65.1,60.4,53.8,95,80,55,30.02,29.84,6,0,7,0.01
2013-8-15,80.8,65.5,53.7,68.5,59.4,51.8,95,82,58,30.04,29.96,6,0,6,0.00
2013-8-16,83.2,68.1,56.3,68.3,61.0,55.1,98,80,53,30.05,29.97,6,0,7,0.00
2013-8-17,75.3,66.7,57.1,66.6,62.1,56.0,98,86,67,30.09,30.01,5,0,5,0.00
2013-8-18,80.0,68.7,62.6,69.9,65.5,61.7,98,90,67,30.11,30.03,10,0,12,0.01
2013-8-19,80.8,69.0,64.6,72.2,66.6,63.9,99,93,70,30.10,29.99,4,0,6,0.01
2013-8-20,85.4,73.5,65.2,74.4,68.7,64.6,99,86,61,30.10,30.00,3,0,4,0.00
2013-8-21,81.3,71.9,65.9,73.9,68.9,64.9,99,91,73,30.13,30.03,6,0,6,0.01
2013-8-22,85.5,74.0,65.3,73.4,69.1,64.6,99,86,62,30.10,29.95,7,0,8,0.00
2013-8-23,83.5,71.6,65.2,73.9,68.3,63.9,99,90,68,30.02,29.92,6,0,8,0.00
2013-8-24,86.8,72.1,61.6,70.1,64.6,57.7,98,80,45,30.20,30.02,4,0,6,0.00
2013-8-25,84.3,68.4,55.3,65.7,58.2,50.3,99,74,34,30.30,30.17,5,0,5,0.00
2013-8-26,84.0,69.0,57.3,69.3,62.8,56.4,98,82,56,30.24,30.06,7,0,7,0.00
2013-8-27,83.5,72.3,63.3,72.9,67.5,61.8,97,85,66,30.09,29.95,7,0,10,0.00
2013-8-28,87.0,76.3,68.1,74.3,70.3,66.9,97,83,61,29.98,29.87,11,1,11,0.00
2013-8-29,89.5,78.6,71.1,75.4,71.3,67.7,93,79,56,29.91,29.83,10,0,11,0.00
2013-8-30,89.2,76.6,66.9,73.8,69.2,65.8,98,80,52,29.92,29.81,9,0,10,0.00
2013-8-31,86.8,74.5,68.5,75.6,70.7,67.2,97,89,63,29.87,29.77,11,0,11,0.00
2013-9-1,82.7,71.9,66.3,74.5,68.7,65.4,99,91,67,29.83,29.74,13,0,15,0.18
2013-9-2,83.2,73.3,68.4,73.6,69.7,66.7,98,89,71,29.86,29.75,10,0,10,0.00
2013-9-3,81.8,70.1,62.9,72.9,65.9,61.0,99,88,59,29.95,29.76,12,0,13,0.78
2013-9-4,83.8,68.7,57.7,68.5,62.2,57.0,99,82,49,30.06,29.94,6,0,6,0.01
2013-9-5,83.2,68.3,56.8,68.1,61.9,55.9,100,82,54,30.10,30.03,4,0,5,0.00
2013-9-6,85.8,70.0,56.9,69.1,62.6,56.1,99,80,50,30.12,29.99,5,0,6,0.00
2013-9-7,83.5,69.5,58.3,68.8,63.7,57.5,99,83,56,30.04,29.92,9,0,9,0.00
2013-9-8,85.1,71.5,62.4,72.4,66.1,61.5,99,85,53,29.94,29.88,6,0,7,0.00
2013-9-9,89.4,74.1,62.7,73.7,67.2,62.0,99,81,50,30.05,29.94,7,0,10,0.00
2013-9-10,90.3,73.0,64.5,74.6,67.3,63.2,98,84,53,30.15,30.03,2,0,5,4.04
2013-9-11,87.4,75.4,67.7,74.0,69.6,66.2,98,83,58,30.14,30.00,9,0,10,0.00
2013-9-12,82.3,71.4,64.8,73.8,68.5,63.4,99,91,74,30.01,29.80,16,0,16,0.52
2013-9-13,75.3,66.9,55.5,65.3,59.3,50.9,99,79,45,29.92,29.79,7,0,9,0.01
2013-9-14,76.2,60.3,47.1,56.3,50.8,45.4,96,74,40,30.05,29.91,6,0,6,0.00
2013-9-15,80.6,64.3,50.7,63.3,56.9,49.7,99,79,48,30.13,30.03,9,0,11,4.09
2013-9-16,75.3,65.9,57.7,66.4,61.5,56.6,98,86,69,30.13,30.05,7,0,7,8.18
2013-9-17,78.2,64.8,54.9,63.8,58.0,52.8,94,80,57,30.18,30.09,6,0,8,0.00
2013-9-18,67.2,61.0,55.2,62.0,58.1,53.0,98,91,75,30.16,30.09,2,0,2,0.19
2013-9-19,79.0,67.0,62.1,69.1,64.1,61.5,99,91,70,30.12,29.99,7,0,7,0.01
2013-9-20,82.5,69.5,60.0,69.6,64.6,59.2,99,86,61,30.01,29.82,6,0,7,0.00
2013-9-21,67.3,64.2,60.8,66.0,63.0,59.8,100,96,93,29.82,29.65,4,0,4,0.75
2013-9-22,74.0,61.4,52.6,61.1,56.0,51.2,99,84,52,29.89,29.74,5,0,6,0.01
2013-9-23,77.3,61.5,49.9,64.0,55.7,49.1,100,83,56,29.98,29.89,7,0,7,0.00
2013-9-24,80.3,64.0,52.6,64.3,58.1,51.7,99,83,52,30.00,29.82,0,0,0,0.01
2013-9-25,67.8,63.0,59.8,66.2,61.4,58.5,97,94,90,29.83,29.76,0,0,0,0.17
2013-9-26,77.8,65.4,58.2,64.4,60.2,55.3,98,85,56,29.98,29.81,0,0,0,0.02
2013-9-27,80.2,63.8,53.1,63.6,56.8,51.8,98,80,47,30.09,29.98,0,0,0,0.00
2013-9-28,76.3,62.3,52.1,62.2,56.5,50.9,98,83,56,30.17,30.05,0,0,0,0.00
2013-9-29,72.2,60.0,53.0,61.8,56.2,51.3,97,88,67,30.08,29.95,9,0,9,0.00
2013-9-30,76.4,64.0,56.7,64.3,59.2,55.3,98,85,61,30.02,29.92,6,0,6,0.00
2013-10-1,77.6,63.3,54.2,64.3,58.5,53.4,100,86,56,30.09,29.99,6,0,7,0.00
2013-10-2,81.6,65.6,54.0,66.4,59.6,52.8,99,83,52,30.12,30.01,5,0,6,4.21
2013-10-3,81.8,66.8,57.7,66.6,60.6,56.1,98,82,55,30.08,29.99,5,0,7,0.00
2013-10-4,83.5,68.4,57.9,67.3,62.1,56.8,99,82,55,30.11,30.01,9,0,9,0.00
2013-10-5,86.6,70.0,58.4,70.1,63.1,57.2,98,81,51,30.08,29.93,5,0,6,0.00
2013-10-6,83.5,70.2,58.9,67.2,61.6,57.5,98,77,50,29.94,29.74,9,0,9,8.42
2013-10-7,69.2,59.4,51.2,63.8,53.1,46.2,97,81,54,30.03,29.72,11,1,12,0.36
2013-10-8,74.2,56.7,44.6,55.8,48.4,42.3,94,76,46,30.12,30.03,5,0,10,0.00
2013-10-9,77.0,57.6,47.0,57.2,48.9,44.2,92,75,45,30.17,30.06,6,0,7,4.24
2013-10-10,73.8,54.7,43.8,57.9,47.9,41.5,96,79,51,30.10,29.99,1,0,9,4.24
2013-10-11,77.2,61.8,49.1,60.5,53.8,47.7,97,77,47,30.03,29.91,8,0,8,0.00
2013-10-12,73.2,63.9,58.7,63.3,58.5,53.5,96,83,67,30.05,29.93,7,0,7,0.00
2013-10-13,73.6,64.3,59.1,65.1,61.2,58.0,98,90,71,30.15,30.05,3,0,3,0.01
2013-10-14,78.5,65.0,57.2,64.1,59.5,55.8,97,84,57,30.17,30.04,7,0,8,0.00
2013-10-15,75.8,62.8,52.7,62.8,57.2,51.6,98,83,59,30.09,29.95,4,0,6,0.00
2013-10-16,66.6,61.8,56.8,60.3,57.9,54.4,94,87,78,29.98,29.89,6,0,6,0.01
2013-10-17,65.0,60.2,53.5,64.4,58.6,49.7,98,95,87,29.93,29.76,10,0,13,0.18
2013-10-18,63.9,52.9,43.3,51.8,47.4,42.2,98,83,57,30.03,29.91,4,0,5,0.00
2013-10-19,62.7,53.7,48.1,53.3,49.2,43.5,99,85,65,29.96,29.82,14,1,15,0.00
2013-10-20,65.7,49.7,36.5,44.7,38.7,32.8,100,69,37,30.07,29.96,4,0,4,4.26
2013-10-21,67.7,50.9,37.8,51.0,42.7,34.5,98,76,42,30.10,29.96,12,0,14,0.00
2013-10-22,65.3,55.9,51.0,53.2,49.5,45.4,91,79,63,29.96,29.76,9,0,14,0.00
2013-10-23,52.5,45.8,35.9,50.0,40.4,31.8,94,82,67,30.04,29.70,21,2,22,0.00
2013-10-24,51.4,40.9,32.1,39.0,35.2,29.8,93,81,59,30.20,30.03,16,1,18,0.01
2013-10-25,48.1,37.1,31.1,35.6,29.9,26.2,90,76,50,30.42,30.19,10,0,11,0.00
2013-10-26,54.1,39.4,24.3,35.8,28.8,22.6,96,70,38,30.35,30.08,13,1,17,0.01
2013-10-27,65.3,54.4,45.7,49.2,42.1,34.4,78,63,50,30.11,30.01,14,1,15,0.00
2013-10-28,63.6,57.1,52.6,56.0,52.3,48.3,96,84,71,30.21,30.06,7,0,8,0.02
2013-10-29,69.3,58.8,52.9,56.0,52.6,49.5,96,81,54,30.29,30.17,7,0,10,0.00
2013-10-30,76.0,62.2,54.3,60.0,54.9,49.5,95,78,54,30.22,30.07,11,1,12,0.01
2013-10-31,69.0,63.3,55.5,59.2,55.3,53.1,94,76,60,30.08,29.59,12,1,13,0.00
2013-11-1,70.7,63.6,53.4,61.5,54.9,44.8,97,75,47,29.70,29.56,19,1,19,0.42
2013-11-2,60.2,51.7,45.6,46.7,41.3,35.7,88,69,45,30.00,29.69,18,1,22,0.00
2013-11-3,55.7,44.0,36.8,41.3,36.9,33.4,95,77,53,30.32,30.00,4,0,5,0.00
2013-11-4,62.4,45.8,33.1,40.3,34.7,30.5,93,68,37,30.44,30.31,7,0,7,0.00
2013-11-5,65.7,50.0,39.7,41.4,35.6,31.4,78,59,37,30.44,30.31,6,0,7,0.00
2013-11-6,73.7,56.2,42.3,56.0,47.6,35.0,95,75,49,30.32,30.01,10,0,13,0.00
2013-11-7,57.9,50.3,36.6,55.4,44.2,30.4,100,80,55,30.20,29.93,10,0,13,0.22
2013-11-8,52.7,40.6,32.8,32.3,28.2,24.8,85,63,36,30.35,30.19,8,0,11,0.00
2013-11-9,54.4,41.1,29.2,37.6,31.1,26.1,90,70,42,30.30,30.19,9,0,10,0.00
2013-11-10,61.7,49.0,38.3,42.4,34.0,25.9,82,58,32,30.26,30.16,20,1,20,0.00
2013-11-11,62.9,45.1,29.9,34.2,27.5,19.4,87,54,21,30.30,30.12,9,0,10,0.00
2013-11-12,51.0,38.3,24.6,41.0,27.9,16.0,85,67,46,30.53,30.06,10,0,10,0.02
2013-11-13,42.2,29.3,20.3,24.1,20.1,16.5,87,70,43,30.64,30.47,6,0,9,4.34
2013-11-14,56.2,35.6,22.2,32.0,22.2,18.9,92,63,28,30.50,30.28,8,0,8,0.00
2013-11-15,51.1,39.4,28.2,44.4,32.1,18.6,97,76,50,30.30,30.15,2,0,3,0.17
2013-11-16,68.9,52.5,43.7,57.5,49.2,42.9,98,89,61,30.19,30.05,3,0,3,0.00
2013-11-17,68.8,57.2,49.0,59.6,54.7,47.5,98,92,65,30.07,29.76,6,0,6,0.34
2013-11-18,61.4,54.5,42.2,60.0,44.6,30.4,97,72,40,30.06,29.76,18,1,18,0.35
2013-11-19,50.3,40.0,32.9,32.6,29.1,25.6,81,65,45,30.22,30.06,5,0,6,0.00
2013-11-20,55.7,41.9,32.8,35.3,30.0,27.3,81,64,40,30.34,30.18,7,0,9,0.00
2013-11-21,68.0,48.8,34.0,53.4,42.2,30.1,93,79,54,30.39,30.25,9,0,9,0.00
2013-11-22,57.1,53.5,49.0,54.6,52.1,47.7,98,95,88,30.28,30.11,7,0,9,0.15
2013-11-23,53.4,44.0,29.7,52.8,37.8,19.9,98,80,55,30.31,30.11,13,1,14,0.01
2013-11-24,34.1,24.9,19.5,20.5,12.2,8.1,71,59,37,30.55,30.30,8,0,10,0.00
2013-11-25,37.1,29.2,19.6,30.5,18.3,9.6,92,64,47,30.51,30.19,3,0,3,0.03
2013-11-26,44.7,39.6,32.5,44.2,38.8,30.4,98,97,92,30.20,29.67,3,0,4,2.43
2013-11-27,40.6,29.6,24.6,40.1,26.9,18.7,98,90,77,30.26,29.70,10,1,12,0.11
2013-11-28,36.9,26.1,17.1,28.0,20.4,14.2,91,79,61,30.51,30.26,4,0,4,0.08
2013-11-29,46.4,31.8,20.7,31.8,25.2,18.6,96,78,51,30.61,30.50,3,0,3,0.00
2013-11-30,52.4,36.6,27.1,36.3,28.7,23.4,88,74,49,30.53,30.29,4,0,4,0.00
2013-12-1,53.5,38.2,26.5,38.4,31.2,23.8,92,77,53,30.29,29.99,6,0,6,0.00
2013-12-2,49.4,43.7,39.5,42.9,38.7,33.2,92,82,75,29.99,29.78,4,0,4,0.01
2013-12-3,60.5,49.4,43.3,51.2,45.3,40.4,95,86,68,29.87,29.79,3,0,3,0.01
2013-12-4,69.1,55.3,45.7,55.1,49.6,43.8,95,82,58,29.95,29.83,7,0,7,0.00
2013-12-5,70.3,60.6,52.7,61.0,55.9,49.8,96,85,68,29.98,29.85,6,0,10,0.08
2013-12-6,62.2,53.2,40.3,61.6,52.4,39.5,98,97,95,30.08,29.79,16,0,19,1.12
2013-12-7,40.4,36.3,33.0,39.6,34.7,30.9,97,94,88,30.39,30.07,6,0,6,0.02
2013-12-8,47.2,39.9,33.9,45.0,38.7,32.4,98,95,88,30.34,30.04,5,0,10,0.31
2013-12-9,47.6,44.1,40.2,47.0,43.5,39.7,98,98,96,30.11,29.97,7,0,8,0.44
2013-12-10,42.9,36.3,25.8,42.4,33.5,22.3,98,90,72,30.33,29.92,22,1,22,0.42
2013-12-11,44.0,31.3,21.0,33.2,24.3,19.3,96,77,43,30.45,30.31,9,0,9,4.95
2013-12-12,35.4,28.9,24.2,23.6,19.8,15.1,85,69,47,30.48,30.37,10,0,12,4.95
2013-12-13,47.3,32.2,20.7,28.6,21.0,14.5,80,64,37,30.40,30.19,3,0,4,0.00
2013-12-14,46.3,40.4,36.2,45.8,36.1,26.0,98,85,63,30.20,29.71,7,0,9,0.63
2013-12-15,46.1,35.4,31.0,45.6,32.8,27.4,98,90,84,30.14,29.72,15,2,15,0.04
2013-12-16,45.8,35.9,28.4,35.1,30.6,26.7,94,82,64,30.22,30.08,10,1,13,0.00
2013-12-17,52.1,43.3,35.5,40.2,33.0,21.1,78,67,53,30.14,29.91,22,3,22,0.01
2013-12-18,42.6,33.4,25.9,25.7,22.6,19.6,80,65,47,30.29,30.14,12,1,14,0.00
2013-12-19,55.4,37.5,24.1,33.9,26.1,18.6,88,65,39,30.31,30.13,4,0,4,0.00
2013-12-20,61.1,46.0,34.3,39.8,34.6,28.0,89,66,41,30.16,30.03,3,0,3,0.00
2013-12-21,72.8,60.2,47.3,60.8,51.4,36.4,89,73,61,30.03,29.75,13,1,15,0.00
2013-12-22,70.6,58.7,52.5,61.2,55.3,51.4,100,89,68,29.99,29.74,17,1,19,0.36
2013-12-23,54.4,44.2,32.7,53.8,42.5,29.2,98,94,86,30.25,29.94,11,0,12,0.00
2013-12-24,32.6,29.3,19.5,30.3,23.5,14.4,92,79,60,30.46,30.24,19,1,19,0.00
2013-12-25,40.5,26.5,16.9,24.7,18.4,12.9,94,73,45,30.48,30.30,6,0,9,0.00
2013-12-26,43.8,33.2,26.3,30.0,24.6,20.2,83,71,54,30.38,30.30,9,0,10,0.00
2013-12-27,48.1,33.9,23.4,32.0,25.2,21.2,93,73,43,30.47,30.34,5,0,5,0.00
2013-12-28,43.6,34.3,24.0,36.8,28.6,20.7,96,81,61,30.40,30.04,3,0,3,0.00
2013-12-29,44.3,42.2,37.7,43.8,41.3,36.7,98,97,95,30.04,29.79,13,1,13,0.00
2013-12-30,40.9,37.5,33.3,39.8,35.2,31.0,96,91,87,30.17,29.97,10,1,11,0.00
2013-12-31,38.7,31.4,26.2,31.1,26.9,22.3,95,84,64,30.39,30.15,14,1,14,0.00
2014-1-1,48.1,32.4,24.2,33.8,26.5,21.6,93,80,47,30.35,30.08,4,0,4,0.00
2014-1-2,37.5,31.8,18.1,36.7,29.4,12.0,97,91,77,30.08,29.68,26,2,26,0.04